Regional Weather Roundup
Issued by NWS

Home | Current Version | Previous Version | Text Only | Print | Product List | Glossary Off
Versions: 1 2 3 4 5 6 7 8 9 10 11 12 13 14 15 16 17 18 19 20 21 22 23 24 25 26 27 28 29 30 31 32 33 34 35 36 37 38 39 40 41 42 43 44 45 46 47 48 49 50

000
ASUS44 KMEG 200010
RWRTN
TENNESSEE HOURLY STATE WEATHER ROUNDUP
NATIONAL WEATHER SERVICE MEMPHIS TN
700 PM CDT FRI SEP 19 2014

TNZ002-004-019-021-049-052-054-088>092-200100-
WEST TENNESSEE

CITY           SKY/WX    TMP DP  RH WIND       PRES   REMARKS
MEMPHIS INTL   PTCLDY    80  66  62 S3        29.99S
NWS MEMPHIS      N/A     77 N/A N/A MISG        N/A
JACKSON        CLEAR     75  69  81 CALM      30.01S
DYERSBURG      CLEAR     75  61  60 CALM      30.01S
UNION CITY     CLEAR     73  66  78 CALM      30.00S
PARIS          CLEAR     72  64  78 CALM      30.02S
HUNTINGDON     CLEAR     73  65  76 CALM      30.01S
LEXINGTON      CLEAR     75  70  83 CALM      30.01S
SAVANNAH       CLEAR     77  72  83 CALM      30.01S
$$

TNZ008-025-027-028-033-062-065-066-200100-
NORTH MIDDLE TENNESSEE

CITY           SKY/WX    TMP DP  RH WIND       PRES   REMARKS
NASHVILLE      PTCLDY    80  63  55 NE7       30.02S
DICKSON        PTCLDY    73  66  78 CALM      30.03R
PORTLAND       CLEAR     75  63  64 E3        30.03S
CLARKSVILLE    CLEAR     78  61  55 CALM      30.01S
LEBANON        PTCLDY    79  63  57 CALM      30.02R
SMYRNA         PTCLDY    80  65  60 CALM      30.03S
COOKEVILLE     CLEAR     70  66  88 CALM      30.06S
LIVINGSTON     CLEAR     70  62  75 CALM      30.09R
GALLATIN       CLEAR     80  65  60 CALM      30.04S
CROSSVILLE     CLEAR     69  62  78 CALM      30.11S
$$

TNZ061-075-076-078-094-096-097-200100-
SOUTH MIDDLE TENNESSEE

CITY           SKY/WX    TMP DP  RH WIND       PRES   REMARKS
LEWISBURG      PTCLDY    76  68  76 CALM      30.02S
FAYETTEVILLE   PTCLDY    75  64  69 SE5       30.04S
TULLAHOMA      CLEAR     77  66  69 CALM      30.06F
WINCHESTER     CLEAR     77  66  69 SE8       30.06S
MCMINNVILLE    CLEAR     73  70  88 CALM      30.06S
COLUMBIA       CLEAR     75  70  83 SE3       30.01R
SHELBYVILLE    CLEAR     79  68  69 CALM      30.04S
$$

TNZ017-018-042-046-047-200100-
NORTHEAST TENNESSEE

CITY           SKY/WX    TMP DP  RH WIND       PRES   REMARKS
TRI CITIES     PTCLDY    70  56  61 SE8       30.16R
ELIZABETHTON   CLEAR     66  55  68 E10       30.18S
$$

TNZ012-013-036-069-073-074-200100-
CENTRAL EAST TENNESSEE

CITY           SKY/WX    TMP DP  RH WIND       PRES   REMARKS
KNOXVILLE      MOCLDY    75  63  66 E3        30.08R
OAK RIDGE      PTCLDY    75  66  73 CALM      30.09R
GATLINBURG     PTCLDY    72  63  73 CALM      30.08R
MORRISTOWN     CLEAR     73  61  64 E7        30.11S
$$

TNZ083-085-099-200100-
SOUTHEAST TENNESSEE

CITY           SKY/WX    TMP DP  RH WIND       PRES   REMARKS
CHATTANOOGA    MOCLDY    79  63  57 SE5       30.06R
$$

SKY/WX REPORTED AS FAIR MEANS FEW OR NO CLOUDS BELOW
12 THOUSAND FEET.



USA.gov is the U.S. government's official web portal to all federal, state and local government web resources and services.